Printer-friendly version

IAU Minor Planet Center

Minor Planet Center

MPEC 2008-P51 : COMET C/2007 U1 (LINEAR)

The following Minor Planet Electronic Circular may be linked-to from your own Web pages, but must not otherwise be redistributed electronically.


Read MPEC 2008-P50 Read MPEC 2008-P52


M.P.E.C. 2008-P51                                Issued 2008 Aug. 11, 14:23 UT

     The Minor Planet Electronic Circulars contain information on unusual
         minor planets and routine data on comets.  They are published
   on behalf of Commission 20 of the International Astronomical Union by the
          Minor Planet Center, Smithsonian Astrophysical Observatory,
                          Cambridge, MA 02138, U.S.A.

             Prepared using the Tamkin Foundation Computer Network

                              MPC@CFA.HARVARD.EDU
          URL http://www.cfa.harvard.edu/iau/mpc.html  ISSN 1523-6714

                           COMET C/2007 U1 (LINEAR)

Observations:
    CK07U010  C2008 07 29.46081 04 18 14.14 +21 01 08.9          15.4 T EP051G96
    CK07U010  C2008 07 29.46964 04 18 13.96 +21 01 11.1          15.4 T EP051G96
    CK07U010  C2008 07 29.47405 04 18 13.86 +21 01 12.3          15.4 T EP051G96
    CK07U010  C2008 08 07.75352 04 14 41.68 +21 37 36.0                 EP051349
    CK07U010  C2008 08 07.75815 04 14 41.54 +21 37 37.1                 EP051349
    CK07U010  C2008 08 07.76280 04 14 41.42 +21 37 38.3          15.8 T EP051349

Observer details:
349 Ageo.  Observer K. Kadota.  0.25-m f/5.0 reflector + CCD.
G96 Mt. Lemmon Survey.  Observer A. Boattini.  Measurers E. C. Beshore,
    A. Boattini, A. R. Gibbs, A. D. Grauer, R. E. Hill, R. A. Kowalski,
    S. M. Larson.  1.5-m reflector + CCD.

Orbital elements:
    C/2007 U1 (LINEAR)
Epoch 2008 Aug. 2.0 TT = JDT 2454680.5
T 2008 Aug. 7.06157 TT                                  MPC
q   3.3291382            (2000.0)            P               Q
z  -0.0004302      Peri.    0.92971     +0.65364706     +0.69912229
 +/-0.0000030      Node    50.04265     +0.69188716     -0.70719245
e   1.0014321      Incl.  157.78722     +0.30665564     +0.10538905
Residuals in seconds of arc
071019 704  0.8+  0.1+    071117 349  0.5-  1.2+    080103 400 (2.2-  0.3+)
071019 704  0.2+  0.7+    071117 349  0.6-  1.0+    080103 400 (2.2-  0.3+)
071019 704  0.5+  0.2-    071118 349  0.6-  0.6+    080103 400 (2.5-  0.4+)
071019 704  0.4+  0.8+    071118 349  0.5-  0.5+    080106 900  1.9+  1.1-
071019 704  0.6-  0.3-    071118 349  0.7-  0.6+    080106 900  0.5+  0.1+
071020 H55  0.2+  0.6-    071120 585  0.3+  0.3+    080112 939  0.4+  0.1-
071020 H55  0.3+  0.4-    071120 585  0.2-  0.1+    080112 939  0.3+  0.3-
071020 H55  0.7-  0.3+    071120 585  0.1+  0.4-    080112 939  0.1+  0.2-
071020 H55  0.0   0.4-    071124 213  0.7+  0.6+    080114 349  0.6+  0.4-
071020 704  0.1+  0.4+    071124 213  0.3+  0.3-    080114 349  0.7+  0.4-
071020 704  0.1-  0.1+    071125 349  0.0   0.5-    080114 349  0.6+  0.4-
071020 704  0.0   0.3-    071125 349  0.4-  0.4-    080115 H45  0.6-  0.1+
071020 413  0.0   0.2-    071125 349  0.4-  0.6-    080115 H45  0.6-  0.1+
071020 413  0.2+  0.2-    071130 585  0.7-  0.8+    080115 H45  0.5-  0.1+
071021 473  0.4+  0.1-    071130 585  0.5+  0.4+    080115 H45  1.0-  0.2+
071021 473  0.3+  0.3-    071130 585  0.3-  0.1-    080115 H45  0.7-  0.1+
071021 473  0.2+  0.4-    071201 J47  0.0   0.3-    080115 H45  0.8-  0.0
071021 204  0.4+  0.7-    071201 213  0.2-  0.7-    080119 349  0.9+  0.5-
071021 B33  0.5+  0.5+    071201 J47  0.1-  0.1+    080119 349  1.1+  0.2-
071021 B33 (2.4-  0.7-)   071201 213  0.1-  0.9-    080119 349  1.1+  0.3-
071021 850  0.6-  0.0     071201 J47  0.3-  0.2+    080119 J35  0.4+  0.3+
071021 850  0.4-  0.3+    071201 213  0.4+  0.0     080119 J35  0.1+  1.0+
071021 850 (0.1+  2.2-)   071203 673  0.4-  0.5+    080119 J35  0.3+  0.2+
071021 704  0.1+  0.6+    071203 673  0.3-  0.5+    080119 B30 (6.1+  5.0-)
071021 704  0.1-  1.4+    071203 673  0.8-  0.4+    080119 B30 (5.3+  4.3-)
071021 704  1.2+  0.7+    071203 673  0.4-  0.7+    080119 B30 (3.2+  2.0+)
071021 701  0.3-  0.5-    071203 J46  0.1+  0.4+    080123 204  0.4-  0.1+
071021 704  1.2-  0.0     071203 J46  0.1+  0.1+    080123 204  0.4-  0.1-
071021 701  0.8+  0.3-    071204 415  0.0   0.1+    080126 170  0.1-  0.3-
071021 701  0.4-  0.2-    071204 415  0.2-  0.1+    080126 170  0.1-  0.3-
071021 413  0.0   0.0     071214 704  0.6+  1.6+    080126 170  0.3-  0.0
071021 413  0.1-  0.1+    071214 704  0.8+  1.2+    080126 170  0.2-  0.2-
071021 413  0.3-  0.1+    071214 704  0.4+  0.6+    080126 170  0.3-  0.1+
071021 413  0.2-  0.1+    071214 704 (3.4-  0.2+)   080127 D88  0.4-  0.1+
071021 413  0.2-  0.3+    071214 704  0.9+  1.6+    080127 D88  0.1-  0.1+
071022 A80  0.1-  0.4-    071214 J51  0.5+  0.3+    080127 D88  0.1+  0.1-
071022 A80  0.1-  1.0-    071215 J51  0.5+  0.5+    080131 A77  0.9-  0.0
071022 A80  0.5-  0.4-    071215 J51  1.4+  1.0+    080131 A77  0.9-  0.1+
071022 A80  0.0   0.4+    071215 J47  0.4+  0.0     080131 A77  0.6-  0.0
071022 204  0.0   0.6-    071215 J47  0.2+  0.2+    080202 204  0.6-  0.4+
071022 204  0.1-  0.5-    071215 J47  0.1-  0.5+    080203 703  1.4+  0.2-
071022 H06  0.2+  0.7-    071218 349  0.4+  0.1-    080203 703  1.2+  0.4-
071022 H55  0.1+  0.2-    071218 349  0.3+  0.0     080203 703  1.9+  0.2-
071022 H06  0.8-  0.0     071218 349  0.3+  0.1-    080203 703  1.8+  0.7-
071022 704  0.0   0.2+    071220 703  1.1+  0.2-    080205 118  0.7-  0.2-
071022 H55  0.1+  0.2-    071220 703  1.6-  0.4-    080205 118  0.7-  0.2+
071022 H55  0.1+  0.3-    071220 703 (2.3+  0.7-)   080205 118  0.1+  0.1+
071022 704  0.0   0.2-    071220 703  0.2+  0.5-    080205 118  0.5-  0.1+
071022 704  0.1-  0.0     071220 703  0.1-  0.2-    080208 J96  0.6-  0.2+
071022 704  1.1-  1.1-    071220 703  0.2+  0.1-    080208 J96  0.3-  0.1+
071022 D35  0.6+  0.5-    071220 703  0.6-  0.5-    080208 J96  0.2-  0.3-
071022 D35  0.3+  0.5-    071220 703  1.0-  0.7-    080210 D88  0.5+  0.8+
071022 D21  0.6-  0.5-    071220 703  0.8+  0.7-    080210 D88  0.1-  0.1-
071022 D21  0.2+  1.1+    071220 703 (2.8+  0.8-)   080210 945  1.6-  0.6+
071022 D35  0.2+  0.2-    071220 703  0.4+  0.1-    080210 945  1.7-  0.9+
071022 D21  0.3-  0.1+    071226 J46  0.4-  0.3+    080210 945  1.2-  0.1+
071023 704  0.5+  0.6+    071227 B49  0.0   0.0     080211 945 (2.1-  0.3+)
071023 704  0.6-  0.7+    071227 B49  0.3+  0.1-    080211 945  0.2-  0.6+
071023 704  0.2-  0.3-    071228 704  0.3+  0.3+    080211 945  1.8+  0.5+
071023 349  0.1+  0.4-    071228 704  0.3+  0.1+    080217 349  0.1+  1.4-
071023 349  0.4+  0.2-    071228 704 (2.1+  0.1-)   080217 349  0.1-  1.6-
071024 704  0.0   0.2-    071228 704  0.8+  0.0     080223 D88  0.2-  1.0+
071024 704  0.4-  0.6+    071228 704  1.1+  0.5+    080223 D88  0.1+  1.0+
071024 704  1.0+  0.5+    071229 215  0.3-  0.1-    080224 215  0.1-  0.0
071024 704  0.7-  0.1-    071229 215  0.1-  0.3-    080224 215  0.2-  0.1+
071028 213  0.4+  1.2-    071229 215  0.1-  0.0     080224 215  0.2-  0.1+
071028 213  0.2+  0.8-    071230 D88  0.8-  0.5+    080229 704  1.5+  0.7-
071028 213  0.3-  0.2-    071230 D88  0.4+  0.1-    080229 704  0.5+  0.5-
071102 850  0.9+  1.2-    071230 D88  0.3-  0.6-    080229 704  0.0   0.6+
071102 850  0.6-  0.2-    071230 B49  0.1+  0.6-    080229 704  0.0   0.1+
071102 673  0.0   0.1-    071230 B49  0.0   0.0     080229 704  0.3-  0.4+
071102 673  0.2-  0.0     071230 170  0.6-  0.2-    080302 204  0.3-  0.3+
071102 673  0.3-  0.1+    071230 170  0.2-  0.1-    080302 204  0.1-  0.0
071102 673  0.1-  0.1+    071230 170  0.1-  0.2-    080308 071  0.6-  0.1+
071108 130  0.2-  0.0     071231 415  0.5-  0.1-    080308 071  1.0+  0.3-
071108 130  0.1+  0.1-    071231 415  0.1+  0.5-    080308 071  0.5-  0.4+
071108 130  0.1+  0.8-    071231 355  0.2+  0.2-    080308 071  0.9-  0.1+
071108 130  0.4+  0.4-    071231 355  0.3+  0.5-    080309 704  1.5+  1.0-
071110 147  0.3+  0.7+    071231 355  1.1+  0.6-    080309 704  0.6-  0.9+
071110 J47  0.3-  0.2+    071231 355  0.7+  0.2+    080309 704  0.5-  0.2+
071110 147  0.2+  0.1-    080101 213  0.4-  0.3+    080309 704  0.6-  0.9+
071110 J47  0.2+  0.3+    080101 213  0.2-  0.6-    080309 704  0.6-  0.2+
071110 J47  0.0   1.5-    080101 213  0.4-  0.4+    080309 349  0.4-  0.6-
071112 355  0.4+  0.0     080101 J51  0.1-  0.2-    080309 349  0.3-  0.4-
071112 355  0.1-  0.3+    080101 J51  0.2-  0.1+    080729 G96  1.2+  1.7-
071112 355  0.2-  0.6-    080101 J51  0.3-  0.6+    080729 G96  0.8+  1.6-
071112 355  0.2-  0.5-    080102 349  0.1-  0.4+    080729 G96  0.5+  1.5-
071115 349  0.3-  0.4+    080102 349  0.1+  0.5+    080807 349  0.6-  0.9+
071115 349  0.4-  0.3+    080102 349  0.1-  0.3+    080807 349  0.6-  0.9+
071117 204  0.1-  0.2-    080103 H47  1.0-  0.2+    080807 349  0.4-  1.0+
071117 204  0.4-  0.1-    080103 H47  0.6-  0.2-

     The "original" and "future" barycentric values of 1/a are +0.000168
and +0.000065 (+/- 0.000003) AU^-1, respectively.

Brian G. Marsden             (C) Copyright 2008 MPC           M.P.E.C. 2008-P51

Read MPEC 2008-P50 Read MPEC 2008-P52


Our Web policy. Index to the CBAT/MPC/ICQ pages.


Valid HTML 4.01!